Torna al catalogo

FENGYUN 1C DEB

AttivoSSO
NORAD 33658·DEBRIS·🇨🇳 China

Lanciato May 10, 1999 da Taiyuan Satellite Launch Center

Loading…

Prossimi Passaggi (prossime 24 ore)

TLE

AggiornatoSource: Space-Track

Epoca: Sep 14, 2026, 21:07 UTC

1 33658U 99025DET 26257.88015622  .00002108  00000-0  20855-2 0  9997
2 33658  99.5806  51.6227 0281106 195.7519 163.4742 13.63555849619015

Traccia FENGYUN 1C DEB in tempo reale con AllMySat

Download on the App Store